Simultaneous Nadir Overpasses (SNOs) Predictions

Prediction of SNOs between AQUA and NPP Satellite Orbit:

Table of predicted SNOs for the next 14.0 days since TLE Epoch: 7/28/2017
Index Date (AQUA) Time (AQUA) Lat,Lon (AQUA) SZA (AQUA ) Date (NPP) Time (NPP) Lat,Lon (NPP) SZA (NPP ) Distance(km) Time Diff (sec)
1 07/30/2017 05:32:25 74.34, -28.51 81.40 07/30/2017 05:31:13 74.35, -28.43 81.44 2.70 72
2 07/30/2017 06:21:30 -75.51, 142.16 99.93 07/30/2017 06:21:35 -75.51, 142.17 99.94 0.46 5
3 08/01/2017 21:48:47 74.71, 88.29 81.62 08/01/2017 21:48:03 74.72, 88.32 81.65 1.19 44
4 08/01/2017 22:37:53 -75.82,-101.05 99.65 08/01/2017 22:38:26 -75.82,-101.07 99.67 0.56 33
5 08/04/2017 14:05:09 75.08,-154.89 81.88 08/04/2017 14:04:53 75.08,-154.89 81.89 0.07 16
6 08/04/2017 14:54:16 -76.13, 15.76 99.33 08/04/2017 14:55:17 -76.12, 15.72 99.37 1.21 61
7 08/07/2017 05:32:34 -74.02, 150.75 96.24 08/07/2017 05:31:29 -74.02, 150.71 96.17 1.47 65
8 08/07/2017 06:21:31 75.44, -38.03 82.17 08/07/2017 06:21:43 75.44, -38.06 82.16 0.84 12
9 08/09/2017 21:48:53 -74.49, -92.28 96.03 08/09/2017 21:48:16 -74.48, -92.34 95.98 2.00 37




NCC Satellite Simultaneous Nadir Overpasses (SNOs) Prediction Service
